sat.trackr.live / text

‹ back to catalog

STARLINK-1183

NORAD 45088 · 2020-006AW

PAYLOAD ACTIVE UNKNOWN

§ Identity

Operator
Country
US
Launch date
2020-01-29
Launch site
AFETR
Launch vehicle
Mass (kg)
RCS (m²)

Purposes: comms

External: N2YO · Heavens-Above · Gunter

§ Orbital elements

Epoch: 2026-09-09T00:09:54.788832Z

Period
93.36 min
Inclination
53.1541°
Eccentricity
0.0001490
Mean motion
15.42416225 rev/d
Perigee alt
438.0 km
Apogee alt
440.0 km
Semi-major
6,817.1 km
B*
1.4273e-3
RAAN
104.4602°
Arg perigee
105.5771°
Mean anomaly
254.5400°
Rev number
36,524

§ Raw data

STARLINK-11831 45088U 20006AW  26252.00688413  .00062748  00000+0  14273-2 0  99952 45088  53.1541 104.4602 0001490 105.5771 254.5400 15.42416225365245

JSON: /api/v1/satellites/45088 · /tle

For live sub-satellite position, see the globe view (requires WebGL).

§ Visibility from observer

Set your observer location to see the next 7 days of passes ≥ 10°. The values pass through the URL so the page stays shareable.

No JS? Fill the form by hand. The geolocation button needs JavaScript.